Тюп

Киргизия     42°43′32″N   78°21′49″E
темп.,
°C
ветер,
м/с
пор.,
м/с
влажн.,
%
обл.,
%
осадки,
мм/ч
давл.,
гПа
погр.,
м
27 ноября, сб
сб2700:00−6ссв3491100 3.4 1033162
03:00−8св3588100 1.3 1036174
06:00−11ссв458468 1.8 1042115
09:00−10ссв357364 0.0 1044192
12:00−6всв237820 0.1 1041300
15:00−6св227918 0.0 1040192
18:00−11с33710 0.0 104545
21:00−11с33600 0.0 104543
28 ноября, вс
вс2800:00−12с32500 0.0 104534
03:00−12с32480 0.0 104436
06:00−12с32480 0.0 104336
09:00−11с32460 0.0 104435
12:00−7с11490 0.0 1039203
15:00−7с11530 0.0 1037167
18:00−11с32460 0.0 104127
21:00−11с32470 0.0 104129
29 ноября, пн
пн2900:00−12с32510 0.0 104129
03:00−12с32580 0.0 104030
06:00−12с32660 0.0 104031
09:00−11с22713 0.0 104038
12:00−6с11714 0.0 1035175
15:00−5с11755 0.0 1034166
18:00−9с32695 0.0 103834
21:00−9с32666 0.0 103930
30 ноября, вт
вт3000:00−10с32695 0.0 103929
03:00−9с327326 0.0 103929
06:00−9с327330 0.0 103928
09:00−8с22718 0.0 103933
12:00−4с11693 0.0 1034128
15:00−3ссв11725 0.0 1033175
18:00−7с326672 0.0 103527
21:00−7с326273 0.0 103629
1 декабря, ср
ср100:00−7с226174 0.0 103526
03:00−7с326362 0.0 103435
06:00−7с226339 0.0 103431
09:00−7с226414 0.0 103439
12:00−3с116521 0.0 1030192
15:00−2с11685 0.0 1028192
18:00−6с226344 0.0 103025
21:00−6с225978 0.0 103127